| time (UTC) | temp C | wind direction | speed KPH | gust KPH | rain 1hr cm | rain 24hr cm | rain mn cm | humidity % | barometer mb |
| 20260509031352 | 15 | 284 | 1.6 | 6.4 | 0.00 | 0.00 | 0.00 | 71 | 1021.3 |
| 20260509031348 | 15 | 299 | 3.2 | 6.4 | 0.00 | 0.00 | 0.00 | 72 | 1021.4 |
| 20260509030348 | 15 | 271 | 1.6 | 8.0 | 0.00 | 0.00 | 0.00 | 71 | 1021.3 |
| 20260509025849 | 15 | 269 | 1.6 | 8.0 | 0.00 | 0.00 | 0.00 | 70 | 1021.2 |
| 20260509025347 | 15 | 239 | 1.6 | 8.0 | 0.00 | 0.00 | 0.00 | 69 | 1021.3 |
| 20260509024846 | 16 | 247 | 1.6 | 8.0 | 0.00 | 0.00 | 0.00 | 68 | 1021.2 |
| 20260509024352 | 16 | 269 | 3.2 | 9.7 | 0.00 | 0.00 | 0.00 | 67 | 1021.1 |
| 20260509024347 | 16 | 276 | 3.2 | 9.7 | 0.00 | 0.00 | 0.00 | 68 | 1021.2 |
| 20260509023848 | 16 | 288 | 3.2 | 9.7 | 0.00 | 0.00 | 0.00 | 67 | 1021.1 |
| 20260509022846 | 16 | 269 | 1.6 | 6.4 | 0.00 | 0.00 | 0.00 | 67 | 1021.0 |
| 20260509022348 | 16 | 259 | 1.6 | 6.4 | 0.00 | 0.00 | 0.00 | 67 | 1021.0 |
| 20260509021844 | 16 | 271 | 1.6 | 6.4 | 0.00 | 0.00 | 0.00 | 66 | 1021.1 |
| 20260509021355 | 18 | 245 | 3.2 | 11.3 | 0.00 | 0.00 | 0.00 | 64 | 1020.9 |
| 20260509021345 | 17 | 240 | 1.6 | 12.9 | 0.00 | 0.00 | 0.00 | 65 | 1021.0 |
| 20260509020846 | 17 | 271 | 3.2 | 12.9 | 0.00 | 0.00 | 0.00 | 65 | 1021.0 |
| 20260509020345 | 17 | 173 | 3.2 | 12.9 | 0.00 | 0.00 | 0.00 | 63 | 1021.0 |
| 20260509015845 | 17 | 256 | 3.2 | 12.9 | 0.00 | 0.00 | 0.00 | 63 | 1021.0 |
| 20260509015346 | 18 | 304 | 3.2 | 11.3 | 0.00 | 0.00 | 0.00 | 63 | 1020.9 |
| 20260509014350 | 17 | 267 | 3.2 | 16.1 | 0.00 | 0.00 | 0.00 | 63 | 1020.9 |
| 20260509014344 | 17 | 242 | 3.2 | 16.1 | 0.00 | 0.00 | 0.00 | 63 | 1020.9 |
| 20260509013342 | 18 | 218 | 3.2 | 16.1 | 0.00 | 0.00 | 0.00 | 62 | 1020.9 |
| 20260509012844 | 18 | 238 | 3.2 | 16.1 | 0.00 | 0.00 | 0.00 | 62 | 1021.0 |
| 20260509012348 | 18 | 247 | 3.2 | 9.7 | 0.00 | 0.00 | 0.00 | 63 | 1021.0 |
| 20260509012343 | 18 | 259 | 3.2 | 9.7 | 0.00 | 0.00 | 0.00 | 62 | 1021.0 |
| 20260509011343 | 18 | 235 | 4.8 | 11.3 | 0.00 | 0.00 | 0.00 | 61 | 1021.0 |
| 20260509010842 | 18 | 238 | 4.8 | 11.3 | 0.00 | 0.00 | 0.00 | 60 | 1021.1 |
| 20260509010342 | 18 | 241 | 4.8 | 11.3 | 0.00 | 0.00 | 0.00 | 59 | 1021.2 |
| 20260509005843 | 18 | 300 | 3.2 | 11.3 | 0.00 | 0.00 | 0.00 | 59 | 1021.2 |
| 20260509005343 | 19 | 248 | 3.2 | 11.3 | 0.00 | 0.00 | 0.00 | 60 | 1021.2 |
| 20260509004844 | 18 | 223 | 4.8 | 14.5 | 0.00 | 0.00 | 0.00 | 60 | 1021.2 |
| 20260509004344 | 18 | 233 | 4.8 | 14.5 | 0.00 | 0.00 | 0.00 | 60 | 1021.2 |
| 20260509003842 | 19 | 265 | 4.8 | 14.5 | 0.00 | 0.00 | 0.00 | 60 | 1021.2 |
| 20260509003344 | 19 | 294 | 4.8 | 14.5 | 0.00 | 0.00 | 0.00 | 60 | 1021.2 |
| 20260509002844 | 19 | 307 | 4.8 | 12.9 | 0.00 | 0.00 | 0.00 | 60 | 1021.2 |
| 20260509002343 | 18 | 296 | 6.4 | 17.7 | 0.00 | 0.00 | 0.00 | 59 | 1021.2 |
| 20260509001842 | 19 | 299 | 6.4 | 17.7 | 0.00 | 0.00 | 0.00 | 59 | 1021.2 |
| 20260509001344 | 19 | 346 | 4.8 | 14.5 | 0.00 | 0.00 | 0.00 | 59 | 1021.1 |
| 20260509000841 | 19 | 242 | 4.8 | 11.3 | 0.00 | 0.00 | 0.00 | 59 | 1021.1 |
| 20260509000340 | 18 | 302 | 6.4 | 14.5 | 0.00 | 0.00 | 0.00 | 59 | 1021.1 |
| 20260508235840 | 19 | 303 | 6.4 | 14.5 | 0.00 | 0.00 | 0.00 | 59 | 1021.2 |
| 20260508235339 | 19 | 334 | 6.4 | 14.5 | 0.00 | 0.00 | 0.00 | 60 | 1021.2 |
| 20260508234838 | 19 | 294 | 4.8 | 14.5 | 0.00 | 0.00 | 0.00 | 58 | 1021.2 |
| 20260508234339 | 18 | 252 | 6.4 | 14.5 | 0.00 | 0.00 | 0.00 | 60 | 1021.2 |
| 20260508233839 | 18 | 301 | 6.4 | 16.1 | 0.00 | 0.00 | 0.00 | 58 | 1021.3 |
| 20260508233343 | 19 | 315 | 6.4 | 12.9 | 0.00 | 0.00 | 0.00 | 60 | 1021.3 |
| 20260508233338 | 19 | 302 | 6.4 | 16.1 | 0.00 | 0.00 | 0.00 | 59 | 1021.3 |
| 20260508232344 | 18 | 317 | 6.4 | 17.7 | 0.00 | 0.00 | 0.00 | 59 | 1021.3 |
| 20260508232340 | 18 | 306 | 6.4 | 12.9 | 0.00 | 0.00 | 0.00 | 60 | 1021.3 |
| 20260508231340 | 18 | 11 | 6.4 | 17.7 | 0.00 | 0.00 | 0.00 | 59 | 1021.2 |
| 20260508230838 | 19 | 213 | 4.8 | 16.1 | 0.00 | 0.00 | 0.00 | 59 | 1021.3 |
| 20260508230339 | 18 | 265 | 6.4 | 16.1 | 0.00 | 0.00 | 0.00 | 61 | 1021.4 |
| 20260508225838 | 18 | 9 | 6.4 | 16.1 | 0.00 | 0.00 | 0.00 | 60 | 1021.2 |
| 20260508225340 | 18 | 297 | 6.4 | 12.9 | 0.00 | 0.00 | 0.00 | 60 | 1021.4 |
| 20260508224836 | 18 | 298 | 8.0 | 14.5 | 0.00 | 0.00 | 0.00 | 61 | 1021.4 |
| 20260508224336 | 18 | 336 | 8.0 | 14.5 | 0.00 | 0.00 | 0.00 | 58 | 1021.3 |
| 20260508223841 | 18 | 322 | 4.8 | 12.9 | 0.00 | 0.00 | 0.00 | 59 | 1021.3 |
| 20260508223836 | 18 | 336 | 6.4 | 14.5 | 0.00 | 0.00 | 0.00 | 60 | 1021.4 |
| 20260508222834 | 18 | 304 | 4.8 | 12.9 | 0.00 | 0.00 | 0.00 | 61 | 1021.3 |
| 20260508222334 | 18 | 277 | 4.8 | 12.9 | 0.00 | 0.00 | 0.00 | 57 | 1021.3 |
| 20260508221834 | 18 | 332 | 4.8 | 12.9 | 0.00 | 0.00 | 0.00 | 59 | 1021.3 |
| 20260508221336 | 18 | 13 | 4.8 | 12.9 | 0.00 | 0.00 | 0.00 | 61 | 1021.4 |
| 20260508220841 | 18 | 295 | 4.8 | 11.3 | 0.00 | 0.00 | 0.00 | 58 | 1021.5 |
| 20260508220834 | 18 | 306 | 6.4 | 12.9 | 0.00 | 0.00 | 0.00 | 60 | 1021.4 |
| 20260508220334 | 18 | 334 | 6.4 | 11.3 | 0.00 | 0.00 | 0.00 | 60 | 1021.5 |
| 20260508215334 | 18 | 249 | 4.8 | 11.3 | 0.00 | 0.00 | 0.00 | 64 | 1021.6 |
| 20260508214839 | 18 | 261 | 4.8 | 14.5 | 0.00 | 0.00 | 0.00 | 60 | 1021.6 |
| 20260508214835 | 18 | 285 | 4.8 | 14.5 | 0.00 | 0.00 | 0.00 | 60 | 1021.5 |
| 20260508213832 | 18 | 292 | 6.4 | 16.1 | 0.00 | 0.00 | 0.00 | 57 | 1021.7 |
| 20260508213333 | 18 | 345 | 8.0 | 16.1 | 0.00 | 0.00 | 0.00 | 61 | 1021.6 |
| 20260508212832 | 17 | 286 | 6.4 | 16.1 | 0.00 | 0.00 | 0.00 | 61 | 1021.6 |
| 20260508212333 | 17 | 5 | 6.4 | 16.1 | 0.00 | 0.00 | 0.00 | 59 | 1021.7 |
| 20260508211832 | 17 | 344 | 4.8 | 14.5 | 0.00 | 0.00 | 0.00 | 59 | 1021.6 |
| 20260508211332 | 17 | 304 | 3.2 | 14.5 | 0.00 | 0.00 | 0.00 | 59 | 1021.6 |
| 20260508210832 | 17 | 215 | 3.2 | 9.7 | 0.00 | 0.00 | 0.00 | 59 | 1021.6 |
| 20260508210330 | 17 | 227 | 3.2 | 9.7 | 0.00 | 0.00 | 0.00 | 59 | 1021.7 |
| 20260508205830 | 17 | 165 | 3.2 | 14.5 | 0.00 | 0.00 | 0.00 | 61 | 1021.6 |
| 20260508205330 | 17 | 237 | 3.2 | 14.5 | 0.00 | 0.00 | 0.00 | 57 | 1021.6 |
| 20260508204834 | 17 | 246 | 3.2 | 12.9 | 0.00 | 0.00 | 0.00 | 60 | 1021.7 |
| 20260508204830 | 17 | 319 | 3.2 | 8.0 | 0.00 | 0.00 | 0.00 | 60 | 1021.6 |
| 20260508203832 | 17 | 355 | 3.2 | 12.9 | 0.00 | 0.00 | 0.00 | 62 | 1021.7 |
| 20260508203334 | 16 | 15 | 3.2 | 12.9 | 0.00 | 0.00 | 0.00 | 62 | 1021.8 |
| 20260508203330 | 16 | 290 | 3.2 | 12.9 | 0.00 | 0.00 | 0.00 | 62 | 1021.8 |
| 20260508202330 | 16 | 32 | 1.6 | 6.4 | 0.00 | 0.00 | 0.00 | 62 | 1021.8 |
| 20260508201834 | 16 | 77 | 3.2 | 9.7 | 0.00 | 0.00 | 0.00 | 62 | 1021.8 |
| 20260508201829 | 16 | 348 | 3.2 | 9.7 | 0.00 | 0.00 | 0.00 | 64 | 1021.8 |
| 20260508200829 | 16 | 250 | 3.2 | 9.7 | 0.00 | 0.00 | 0.00 | 64 | 1021.7 |
| 20260508200328 | 16 | 271 | 4.8 | 12.9 | 0.00 | 0.00 | 0.00 | 64 | 1021.8 |
| 20260508195828 | 16 | 17 | 6.4 | 17.7 | 0.00 | 0.00 | 0.00 | 64 | 1021.8 |
| 20260508195328 | 15 | 17 | 6.4 | 17.7 | 0.00 | 0.00 | 0.00 | 63 | 1021.9 |
| 20260508194828 | 15 | 327 | 3.2 | 12.9 | 0.00 | 0.00 | 0.00 | 67 | 1021.8 |
| 20260508194330 | 15 | 15 | 1.6 | 6.4 | 0.00 | 0.00 | 0.00 | 64 | 1021.9 |
| 20260508193828 | 15 | 319 | 4.8 | 14.5 | 0.00 | 0.00 | 0.00 | 62 | 1021.9 |
| 20260508193327 | 15 | 286 | 6.4 | 14.5 | 0.00 | 0.00 | 0.00 | 60 | 1022.0 |
| 20260508192828 | 15 | 266 | 6.4 | 12.9 | 0.00 | 0.00 | 0.00 | 63 | 1022.1 |
| 20260508192326 | 15 | 325 | 6.4 | 12.9 | 0.00 | 0.00 | 0.00 | 64 | 1022.1 |
| 20260508191828 | 15 | 298 | 4.8 | 11.3 | 0.00 | 0.00 | 0.00 | 64 | 1022.1 |
| 20260508191326 | 15 | 223 | 4.8 | 11.3 | 0.00 | 0.00 | 0.00 | 65 | 1022.1 |
| 20260508190827 | 15 | 243 | 4.8 | 17.7 | 0.00 | 0.00 | 0.00 | 65 | 1022.0 |
| 20260508190326 | 15 | 304 | 4.8 | 17.7 | 0.00 | 0.00 | 0.00 | 64 | 1022.0 |
| 20260508185826 | 15 | 21 | 6.4 | 17.7 | 0.00 | 0.00 | 0.00 | 64 | 1022.0 |
| 20260508185325 | 14 | 22 | 6.4 | 17.7 | 0.00 | 0.00 | 0.00 | 63 | 1021.9 |
| 20260508184824 | 14 | 355 | 4.8 | 14.5 | 0.00 | 0.00 | 0.00 | 62 | 1021.9 |
| 20260508184325 | 14 | 328 | 4.8 | 14.5 | 0.00 | 0.00 | 0.00 | 64 | 1021.9 |
| 20260508183830 | 15 | 249 | 4.8 | 14.5 | 0.00 | 0.00 | 0.00 | 63 | 1022.0 |
| 20260508183825 | 15 | 335 | 4.8 | 14.5 | 0.00 | 0.00 | 0.00 | 64 | 1021.9 |
| 20260508182823 | 15 | 340 | 6.4 | 17.7 | 0.00 | 0.00 | 0.00 | 64 | 1022.0 |
| 20260508182324 | 14 | 268 | 4.8 | 17.7 | 0.00 | 0.00 | 0.00 | 65 | 1022.0 |
| 20260508181823 | 14 | 304 | 4.8 | 12.9 | 0.00 | 0.00 | 0.00 | 67 | 1022.0 |
| 20260508181324 | 14 | 286 | 6.4 | 14.5 | 0.00 | 0.00 | 0.00 | 66 | 1021.9 |
| 20260508180825 | 14 | 343 | 4.8 | 14.5 | 0.00 | 0.00 | 0.00 | 67 | 1021.9 |
| 20260508180322 | 14 | 328 | 4.8 | 12.9 | 0.00 | 0.00 | 0.00 | 65 | 1021.9 |
| 20260508175821 | 13 | 317 | 3.2 | 12.9 | 0.00 | 0.00 | 0.00 | 68 | 1021.9 |
| 20260508175321 | 13 | 5 | 3.2 | 11.3 | 0.00 | 0.00 | 0.00 | 67 | 1021.9 |
| 20260508174820 | 13 | 340 | 3.2 | 11.3 | 0.00 | 0.00 | 0.00 | 67 | 1021.8 |
| 20260508174321 | 13 | 279 | 3.2 | 11.3 | 0.00 | 0.00 | 0.00 | 68 | 1021.8 |
| 20260508173821 | 13 | 273 | 3.2 | 9.7 | 0.00 | 0.00 | 0.00 | 66 | 1021.7 |
| 20260508173321 | 13 | 176 | 4.8 | 12.9 | 0.00 | 0.00 | 0.00 | 66 | 1021.7 |
| 20260508172823 | 12 | 319 | 3.2 | 8.0 | 0.00 | 0.00 | 0.00 | 71 | 1021.7 |
| 20260508172817 | 13 | 228 | 3.2 | 12.9 | 0.00 | 0.00 | 0.00 | 69 | 1021.7 |
| 20260508172433 | 12 | 284 | 4.8 | 9.7 | 0.00 | 0.00 | 0.00 | 73 | 1021.7 |
| 20260508171316 | 12 | 303 | 4.8 | 12.9 | 0.00 | 0.00 | 0.00 | 71 | 1021.6 |
| 20260508170815 | 12 | 273 | 4.8 | 12.9 | 0.00 | 0.00 | 0.00 | 69 | 1021.6 |
| 20260508170316 | 13 | 346 | 3.2 | 11.3 | 0.00 | 0.00 | 0.00 | 68 | 1021.6 |
| 20260508165815 | 13 | 201 | 3.2 | 11.3 | 0.00 | 0.00 | 0.00 | 68 | 1021.6 |
| 20260508165316 | 13 | 165 | 3.2 | 11.3 | 0.00 | 0.00 | 0.00 | 65 | 1021.5 |
| 20260508164815 | 13 | 213 | 4.8 | 11.3 | 0.00 | 0.00 | 0.00 | 65 | 1021.5 |
| 20260508164315 | 12 | 152 | 3.2 | 9.7 | 0.00 | 0.00 | 0.00 | 68 | 1021.5 |
| 20260508163816 | 12 | 244 | 3.2 | 9.7 | 0.00 | 0.00 | 0.00 | 68 | 1021.5 |
| 20260508163315 | 12 | 216 | 1.6 | 9.7 | 0.00 | 0.00 | 0.00 | 67 | 1021.5 |
| 20260508162817 | 12 | 215 | 0.0 | 4.8 | 0.00 | 0.00 | 0.00 | 70 | 1021.5 |
| 20260508162316 | 12 | 147 | 0.0 | 3.2 | 0.00 | 0.00 | 0.00 | 69 | 1021.5 |
| 20260508161817 | 12 | 69 | 0.0 | 3.2 | 0.00 | 0.00 | 0.00 | 72 | 1021.4 |
| 20260508161315 | 12 | 69 | 1.6 | 3.2 | 0.00 | 0.00 | 0.00 | 69 | 1021.3 |
| 20260508160815 | 12 | 69 | 1.6 | 8.0 | 0.00 | 0.00 | 0.00 | 75 | 1021.3 |
| 20260508160319 | 11 | 167 | 1.6 | 6.4 | 0.00 | 0.00 | 0.00 | 75 | 1021.4 |
| 20260508160315 | 12 | 108 | 3.2 | 8.0 | 0.00 | 0.00 | 0.00 | 72 | 1021.3 |
| 20260508155317 | 11 | 171 | 1.6 | 6.4 | 0.00 | 0.00 | 0.00 | 75 | 1021.3 |
| 20260508154815 | 11 | 163 | 1.6 | 6.4 | 0.00 | 0.00 | 0.00 | 76 | 1020.9 |
| 20260508154316 | 11 | 172 | 1.6 | 8.0 | 0.00 | 0.00 | 0.00 | 78 | 1021.1 |
| 20260508153815 | 11 | 176 | 3.2 | 11.3 | 0.00 | 0.00 | 0.00 | 80 | 1020.9 |
| 20260508153314 | 10 | 162 | 4.8 | 11.3 | 0.00 | 0.00 | 0.00 | 79 | 1020.8 |
| 20260508152813 | 10 | 158 | 4.8 | 11.3 | 0.00 | 0.00 | 0.00 | 79 | 1021.0 |
| 20260508152313 | 10 | 155 | 6.4 | 11.3 | 0.00 | 0.00 | 0.00 | 79 | 1021.1 |
| 20260508151815 | 10 | 160 | 4.8 | 8.0 | 0.00 | 0.00 | 0.00 | 79 | 1021.0 |
| 20260508151313 | 10 | 168 | 4.8 | 11.3 | 0.00 | 0.00 | 0.00 | 79 | 1020.9 |
| 20260508150814 | 10 | 171 | 6.4 | 11.3 | 0.00 | 0.00 | 0.00 | 78 | 1020.8 |
| 20260508150314 | 10 | 151 | 6.4 | 11.3 | 0.00 | 0.00 | 0.00 | 79 | 1020.6 |
| 20260508145813 | 10 | 161 | 4.8 | 9.7 | 0.00 | 0.00 | 0.00 | 80 | 1020.7 |
| 20260508145314 | 10 | 159 | 3.2 | 9.7 | 0.00 | 0.00 | 0.00 | 81 | 1020.8 |
| 20260508144814 | 9 | 183 | 1.6 | 3.2 | 0.00 | 0.00 | 0.00 | 82 | 1020.7 |
| 20260508144314 | 8 | 183 | 1.6 | 4.8 | 0.00 | 0.00 | 0.00 | 82 | 1020.7 |
| 20260508143819 | 8 | 180 | 1.6 | 6.4 | 0.00 | 0.00 | 0.00 | 81 | 1020.4 |
| 20260508143814 | 8 | 183 | 1.6 | 6.4 | 0.00 | 0.00 | 0.00 | 81 | 1020.6 |
| 20260508142814 | 8 | 173 | 3.2 | 6.4 | 0.00 | 0.00 | 0.00 | 82 | 1020.4 |
| 20260508142313 | 9 | 172 | 3.2 | 6.4 | 0.00 | 0.00 | 0.00 | 82 | 1020.4 |
| 20260508141813 | 9 | 164 | 3.2 | 6.4 | 0.00 | 0.00 | 0.00 | 82 | 1020.4 |
| 20260508141313 | 9 | 165 | 1.6 | 6.4 | 0.00 | 0.00 | 0.00 | 82 | 1020.4 |
| 20260508140814 | 9 | 177 | 1.6 | 3.2 | 0.00 | 0.00 | 0.00 | 82 | 1020.4 |
| 20260508140313 | 9 | 238 | 0.0 | 3.2 | 0.00 | 0.00 | 0.00 | 82 | 1020.5 |
| 20260508135815 | 9 | 238 | 0.0 | 3.2 | 0.00 | 0.00 | 0.00 | 82 | 1020.4 |
| 20260508135315 | 9 | 238 | 0.0 | 3.2 | 0.00 | 0.00 | 0.00 | 81 | 1020.4 |
| 20260508134813 | 9 | 238 | 1.6 | 6.4 | 0.00 | 0.00 | 0.00 | 82 | 1020.4 |
| 20260508134309 | 9 | 240 | 1.6 | 6.4 | 0.00 | 0.00 | 0.00 | 82 | 1020.3 |
| 20260508133808 | 9 | 252 | 1.6 | 8.0 | 0.00 | 0.00 | 0.00 | 81 | 1020.4 |
| 20260508133308 | 9 | 235 | 3.2 | 8.0 | 0.00 | 0.00 | 0.00 | 82 | 1020.4 |
| 20260508132805 | 9 | 260 | 3.2 | 9.7 | 0.00 | 0.00 | 0.00 | 82 | 1020.3 |
| 20260508132306 | 9 | 261 | 3.2 | 11.3 | 0.00 | 0.00 | 0.00 | 82 | 1020.2 |
| 20260508131811 | 9 | 257 | 1.6 | 11.3 | 0.00 | 0.00 | 0.00 | 83 | 1020.0 |
| 20260508131806 | 9 | 310 | 3.2 | 11.3 | 0.00 | 0.00 | 0.00 | 83 | 1020.0 |
| 20260508130805 | 9 | 252 | 1.6 | 6.4 | 0.00 | 0.00 | 0.00 | 83 | 1020.0 |
| 20260508130305 | 9 | 250 | 3.2 | 11.3 | 0.00 | 0.00 | 0.00 | 82 | 1019.8 |
| 20260508125805 | 9 | 280 | 3.2 | 11.3 | 0.00 | 0.00 | 0.00 | 82 | 1019.8 |
| 20260508125306 | 9 | 252 | 3.2 | 8.0 | 0.00 | 0.00 | 0.00 | 82 | 1019.8 |
| 20260508124805 | 9 | 264 | 3.2 | 16.1 | 0.00 | 0.00 | 0.00 | 81 | 1019.7 |
| 20260508124305 | 9 | 286 | 3.2 | 16.1 | 0.00 | 0.00 | 0.00 | 81 | 1019.6 |
| 20260508123802 | 9 | 269 | 4.8 | 14.5 | 0.00 | 0.00 | 0.00 | 81 | 1019.6 |
| 20260508123304 | 9 | 306 | 4.8 | 14.5 | 0.00 | 0.00 | 0.00 | 82 | 1019.6 |
| 20260508122809 | 8 | 300 | 3.2 | 11.3 | 0.00 | 0.00 | 0.00 | 82 | 1019.5 |
| 20260508122804 | 8 | 261 | 3.2 | 11.3 | 0.00 | 0.00 | 0.00 | 82 | 1019.4 |
| 20260508121803 | 8 | 304 | 3.2 | 11.3 | 0.00 | 0.00 | 0.00 | 82 | 1019.3 |
| 20260508121303 | 8 | 238 | 3.2 | 11.3 | 0.00 | 0.00 | 0.00 | 83 | 1019.4 |
| 20260508120803 | 8 | 250 | 3.2 | 9.7 | 0.00 | 0.00 | 0.00 | 83 | 1019.3 |
| 20260508120309 | 8 | 271 | 1.6 | 9.7 | 0.00 | 0.00 | 0.00 | 83 | 1019.2 |
| 20260508120303 | 8 | 225 | 1.6 | 8.0 | 0.00 | 0.00 | 0.00 | 83 | 1019.2 |
| 20260508115306 | 8 | 254 | 1.6 | 9.7 | 0.00 | 0.00 | 0.00 | 83 | 1019.1 |
| 20260508114800 | 8 | 248 | 3.2 | 8.0 | 0.00 | 0.00 | 0.00 | 83 | 1019.0 |
| 20260508114303 | 8 | 265 | 3.2 | 8.0 | 0.00 | 0.00 | 0.00 | 83 | 1019.0 |
| 20260508113801 | 8 | 252 | 1.6 | 8.0 | 0.00 | 0.00 | 0.00 | 83 | 1019.0 |
| 20260508113301 | 8 | 232 | 1.6 | 8.0 | 0.00 | 0.00 | 0.00 | 83 | 1019.0 |
| 20260508112800 | 8 | 263 | 1.6 | 8.0 | 0.00 | 0.00 | 0.00 | 83 | 1019.0 |
| 20260508112301 | 8 | 252 | 3.2 | 11.3 | 0.00 | 0.00 | 0.00 | 83 | 1019.0 |
| 20260508111806 | 8 | 319 | 1.6 | 9.7 | 0.00 | 0.00 | 0.00 | 84 | 1019.0 |
| 20260508111802 | 8 | 246 | 3.2 | 11.3 | 0.00 | 0.00 | 0.00 | 83 | 1018.9 |
| 20260508110803 | 8 | 273 | 3.2 | 14.5 | 0.00 | 0.00 | 0.00 | 84 | 1019.0 |
| 20260508110300 | 8 | 242 | 3.2 | 14.5 | 0.00 | 0.00 | 0.00 | 84 | 1018.9 |
| 20260508105759 | 8 | 224 | 1.6 | 9.7 | 0.00 | 0.00 | 0.00 | 84 | 1018.7 |
| 20260508105300 | 8 | 275 | 1.6 | 12.9 | 0.00 | 0.00 | 0.00 | 85 | 1018.7 |
| 20260508104759 | 8 | 259 | 1.6 | 12.9 | 0.00 | 0.00 | 0.00 | 85 | 1018.7 |
| 20260508104301 | 8 | 268 | 1.6 | 8.0 | 0.00 | 0.00 | 0.00 | 85 | 1018.5 |
| 20260508103759 | 8 | 247 | 1.6 | 6.4 | 0.00 | 0.00 | 0.00 | 85 | 1018.5 |
| 20260508103305 | 8 | 267 | 3.2 | 11.3 | 0.00 | 0.00 | 0.00 | 85 | 1018.5 |
| 20260508103300 | 8 | 238 | 3.2 | 11.3 | 0.00 | 0.00 | 0.00 | 85 | 1018.5 |
| 20260508102259 | 8 | 269 | 3.2 | 8.0 | 0.00 | 0.00 | 0.00 | 86 | 1018.4 |
| 20260508101802 | 8 | 256 | 1.6 | 11.3 | 0.00 | 0.00 | 0.00 | 86 | 1018.5 |
| 20260508101757 | 8 | 256 | 3.2 | 8.0 | 0.00 | 0.00 | 0.00 | 86 | 1018.4 |
| 20260508100802 | 8 | 250 | 3.2 | 9.7 | 0.00 | 0.00 | 0.00 | 86 | 1018.5 |
| 20260508100757 | 8 | 238 | 3.2 | 11.3 | 0.00 | 0.00 | 0.00 | 86 | 1018.5 |
| 20260508095757 | 8 | 256 | 4.8 | 14.5 | 0.00 | 0.00 | 0.00 | 86 | 1018.4 |
| 20260508095257 | 8 | 222 | 4.8 | 14.5 | 0.00 | 0.00 | 0.00 | 86 | 1018.4 |
| 20260508094758 | 8 | 211 | 4.8 | 16.1 | 0.00 | 0.00 | 0.00 | 87 | 1018.4 |
| 20260508094255 | 8 | 252 | 4.8 | 16.1 | 0.00 | 0.00 | 0.00 | 87 | 1018.3 |
| 20260508093756 | 8 | 173 | 6.4 | 14.5 | 0.00 | 0.00 | 0.00 | 87 | 1018.2 |
| 20260508093300 | 8 | 217 | 6.4 | 12.9 | 0.00 | 0.00 | 0.00 | 87 | 1018.0 |
| 20260508093256 | 8 | 223 | 6.4 | 14.5 | 0.00 | 0.00 | 0.00 | 87 | 1018.1 |
| 20260508092906 | 8 | 221 | 6.4 | 16.1 | 0.00 | 0.00 | 0.00 | 87 | 1018.1 |
| 20260508091754 | 8 | 208 | 8.0 | 16.1 | 0.00 | 0.00 | 0.00 | 87 | 1018.0 |
| 20260508091253 | 8 | 235 | 8.0 | 16.1 | 0.00 | 0.00 | 0.00 | 87 | 1018.0 |
| 20260508090752 | 8 | 229 | 6.4 | 16.1 | 0.00 | 0.00 | 0.00 | 87 | 1018.0 |
| 20260508090252 | 8 | 256 | 6.4 | 16.1 | 0.00 | 0.00 | 0.00 | 87 | 1017.9 |
| 20260508085752 | 8 | 205 | 6.4 | 16.1 | 0.00 | 0.00 | 0.00 | 87 | 1017.7 |
| 20260508085252 | 8 | 216 | 8.0 | 14.5 | 0.00 | 0.00 | 0.00 | 87 | 1017.6 |
| 20260508084757 | 8 | 205 | 8.0 | 16.1 | 0.00 | 0.00 | 0.00 | 87 | 1017.6 |
| 20260508084751 | 8 | 240 | 8.0 | 14.5 | 0.00 | 0.00 | 0.00 | 87 | 1017.6 |
| 20260508083749 | 8 | 222 | 8.0 | 16.1 | 0.00 | 0.00 | 0.00 | 87 | 1017.6 |
| 20260508083249 | 8 | 203 | 8.0 | 16.1 | 0.00 | 0.00 | 0.00 | 87 | 1017.7 |
| 20260508082750 | 8 | 225 | 6.4 | 16.1 | 0.00 | 0.00 | 0.00 | 87 | 1017.7 |
| 20260508082250 | 8 | 210 | 4.8 | 14.5 | 0.00 | 0.00 | 0.00 | 87 | 1017.7 |
| 20260508081748 | 8 | 212 | 4.8 | 12.9 | 0.00 | 0.00 | 0.00 | 87 | 1017.7 |
| 20260508081249 | 8 | 241 | 3.2 | 12.9 | 0.00 | 0.00 | 0.00 | 87 | 1017.7 |
| 20260508080750 | 8 | 298 | 3.2 | 16.1 | 0.00 | 0.00 | 0.00 | 87 | 1017.5 |
| 20260508080248 | 8 | 216 | 3.2 | 16.1 | 0.00 | 0.00 | 0.00 | 87 | 1017.5 |
| 20260508075752 | 8 | 192 | 3.2 | 14.5 | 0.00 | 0.00 | 0.00 | 86 | 1017.4 |
| 20260508075747 | 8 | 209 | 4.8 | 14.5 | 0.00 | 0.00 | 0.00 | 86 | 1017.4 |
| 20260508074748 | 8 | 220 | 6.4 | 14.5 | 0.00 | 0.00 | 0.00 | 86 | 1017.3 |
| 20260508074244 | 8 | 203 | 3.2 | 14.5 | 0.00 | 0.00 | 0.00 | 86 | 1017.3 |
| 20260508073745 | 8 | 250 | 3.2 | 9.7 | 0.00 | 0.00 | 0.00 | 86 | 1017.4 |
| 20260508073248 | 8 | 246 | 3.2 | 14.5 | 0.00 | 0.00 | 0.00 | 85 | 1017.4 |
| 20260508073244 | 8 | 254 | 3.2 | 9.7 | 0.00 | 0.00 | 0.00 | 86 | 1017.3 |
| 20260508072245 | 8 | 236 | 3.2 | 14.5 | 0.00 | 0.00 | 0.00 | 85 | 1017.3 |
| 20260508071744 | 8 | 266 | 3.2 | 12.9 | 0.00 | 0.00 | 0.00 | 85 | 1017.3 |
| 20260508071244 | 8 | 214 | 4.8 | 20.9 | 0.00 | 0.00 | 0.00 | 84 | 1017.2 |
| 20260508070744 | 8 | 229 | 8.0 | 20.9 | 0.00 | 0.00 | 0.00 | 84 | 1017.2 |
| 20260508070245 | 8 | 210 | 8.0 | 16.1 | 0.00 | 0.00 | 0.00 | 84 | 1017.2 |
| 20260508065746 | 8 | 229 | 8.0 | 19.3 | 0.00 | 0.00 | 0.00 | 84 | 1017.2 |
| 20260508065249 | 8 | 221 | 4.8 | 12.9 | 0.00 | 0.00 | 0.00 | 84 | 1017.2 |
| 20260508065245 | 8 | 231 | 6.4 | 19.3 | 0.00 | 0.00 | 0.00 | 84 | 1017.1 |
| 20260508064245 | 8 | 246 | 4.8 | 12.9 | 0.00 | 0.00 | 0.00 | 84 | 1017.2 |
| 20260508063746 | 8 | 205 | 6.4 | 14.5 | 0.00 | 0.00 | 0.00 | 83 | 1017.2 |
| 20260508063251 | 9 | 231 | 6.4 | 14.5 | 0.00 | 0.00 | 0.00 | 83 | 1017.2 |
| 20260508063246 | 9 | 234 | 6.4 | 14.5 | 0.00 | 0.00 | 0.00 | 83 | 1017.2 |
| 20260508062244 | 9 | 228 | 6.4 | 12.9 | 0.00 | 0.00 | 0.00 | 82 | 1017.2 |
| 20260508061743 | 9 | 191 | 6.4 | 12.9 | 0.00 | 0.00 | 0.00 | 82 | 1017.2 |
| 20260508061244 | 9 | 208 | 4.8 | 11.3 | 0.00 | 0.00 | 0.00 | 82 | 1017.2 |
| 20260508060744 | 9 | 273 | 6.4 | 11.3 | 0.00 | 0.00 | 0.00 | 81 | 1017.2 |
| 20260508060243 | 9 | 227 | 6.4 | 14.5 | 0.00 | 0.00 | 0.00 | 81 | 1017.3 |
| 20260508055743 | 9 | 234 | 6.4 | 14.5 | 0.00 | 0.00 | 0.00 | 81 | 1017.2 |
| 20260508055249 | 10 | 191 | 6.4 | 17.7 | 0.00 | 0.00 | 0.00 | 80 | 1017.2 |
| 20260508055243 | 9 | 219 | 6.4 | 17.7 | 0.00 | 0.00 | 0.00 | 81 | 1017.2 |
| 20260508054856 | 10 | 219 | 6.4 | 19.3 | 0.00 | 0.00 | 0.00 | 80 | 1017.2 |
| 20260508053747 | 10 | 263 | 4.8 | 14.5 | 0.00 | 0.00 | 0.00 | 79 | 1017.2 |
| 20260508053742 | 10 | 246 | 4.8 | 19.3 | 0.00 | 0.00 | 0.00 | 80 | 1017.3 |
| 20260508053241 | 10 | 277 | 4.8 | 14.5 | 0.00 | 0.00 | 0.00 | 79 | 1017.2 |
| 20260508052855 | 10 | 297 | 4.8 | 14.5 | 0.00 | 0.00 | 0.00 | 79 | 1017.2 |
| 20260508051742 | 10 | 211 | 4.8 | 12.9 | 0.00 | 0.00 | 0.00 | 79 | 1017.2 |
| 20260508051242 | 10 | 222 | 4.8 | 16.1 | 0.00 | 0.00 | 0.00 | 78 | 1017.2 |
| 20260508050742 | 10 | 207 | 4.8 | 16.1 | 0.00 | 0.00 | 0.00 | 78 | 1017.2 |
| 20260508050238 | 10 | 220 | 4.8 | 17.7 | 0.00 | 0.00 | 0.00 | 77 | 1017.1 |
| 20260508045740 | 10 | 257 | 4.8 | 17.7 | 0.00 | 0.00 | 0.00 | 77 | 1017.0 |
| 20260508045240 | 10 | 223 | 4.8 | 16.1 | 0.00 | 0.00 | 0.00 | 77 | 1017.0 |
| 20260508044743 | 11 | 215 | 3.2 | 11.3 | 0.00 | 0.00 | 0.00 | 76 | 1017.0 |
| 20260508044739 | 10 | 215 | 4.8 | 11.3 | 0.00 | 0.00 | 0.00 | 76 | 1017.0 |
| 20260508043739 | 11 | 310 | 3.2 | 11.3 | 0.00 | 0.00 | 0.00 | 76 | 1017.1 |
| 20260508043239 | 11 | 243 | 3.2 | 11.3 | 0.00 | 0.00 | 0.00 | 75 | 1017.1 |
| 20260508042738 | 11 | 254 | 3.2 | 11.3 | 0.00 | 0.00 | 0.00 | 75 | 1017.0 |
| 20260508042239 | 11 | 236 | 3.2 | 9.7 | 0.00 | 0.00 | 0.00 | 75 | 1017.1 |
| 20260508041740 | 11 | 257 | 3.2 | 8.0 | 0.00 | 0.00 | 0.00 | 74 | 1017.1 |
| 20260508041237 | 11 | 259 | 3.2 | 8.0 | 0.00 | 0.00 | 0.00 | 74 | 1017.1 |
| 20260508040736 | 11 | 240 | 3.2 | 12.9 | 0.00 | 0.00 | 0.00 | 74 | 1017.0 |
| 20260508040237 | 12 | 238 | 3.2 | 12.9 | 0.00 | 0.00 | 0.00 | 73 | 1017.0 |
| 20260508035736 | 12 | 255 | 1.6 | 8.0 | 0.00 | 0.00 | 0.00 | 73 | 1017.0 |
| 20260508035238 | 12 | 242 | 3.2 | 14.5 | 0.00 | 0.00 | 0.00 | 72 | 1016.8 |
| 20260508034737 | 12 | 250 | 4.8 | 14.5 | 0.00 | 0.00 | 0.00 | 71 | 1016.7 |
| 20260508034238 | 12 | 228 | 4.8 | 14.5 | 0.00 | 0.00 | 0.00 | 70 | 1016.7 |
| 20260508033738 | 13 | 224 | 6.4 | 16.1 | 0.00 | 0.00 | 0.00 | 69 | 1016.6 |
| 20260508033238 | 13 | 211 | 8.0 | 16.1 | 0.00 | 0.00 | 0.00 | 68 | 1016.4 |
| 20260508032736 | 13 | 226 | 6.4 | 14.5 | 0.00 | 0.00 | 0.00 | 68 | 1016.4 |
| 20260508032235 | 13 | 261 | 6.4 | 14.5 | 0.00 | 0.00 | 0.00 | 67 | 1016.3 |
| 20260508031735 | 13 | 212 | 8.0 | 14.5 | 0.00 | 0.00 | 0.00 | 66 | 1016.3 |